Terminal Aerodrome Forecast
Issued by NWS

Home | Current Version | Previous Version | Graphics & Text | Print | Product List | Glossary On
Versions: 1 2 3 4 5 6 7 8 9 10 11 12 13 14 15 16 17 18 19
837
FTUS43 KBIS 251021 AAC
TAFDIK
TAF AMD
KDIK 251021Z 2510/2606 25011KT 4SM BR SCT070
      TEMPO 2510/2513 1/4SM FG
     FM251400 26024G35KT P6SM BKN130
     FM260100 28015KT P6SM BKN060=

USA.gov is the U.S. government's official web portal to all federal, state and local government web resources and services.